{"data":{"norad_id":39767,"epoch":"2026-05-25T04:49:01.049376Z","epoch_age_seconds":60779,"freshness":"FRESH","line1":"1 39767U 14029B   26145.20070659  .00001996  00000+0  18440-3 0  9999","line2":"2 39767  97.8039 242.6704 0005642  39.7826 320.3808 14.95734398650780","mean_motion":14.95734398,"eccentricity":0.0005642,"inclination_deg":97.8039,"raan_deg":242.6704,"arg_perigee_deg":39.7826,"mean_anomaly_deg":320.3808,"bstar":0.0001844,"rev_number":65078,"period_min":96.273777077366,"perigee_km":576.16834724556,"apogee_km":584.02001531051,"semimajor_km":6958.231181278,"source":"CELESTRAK","updated_at":"2026-05-25T13:37:55.438838Z"}}